Regional Weather Roundup
Issued by NWS

Home | Current Version | Previous Version | Graphics & Text | Print | Product List | Glossary Off
Versions: 1 2 3 4 5 6 7 8 9 10 11 12 13 14 15 16 17 18 19 20 21 22 23 24 25 26 27 28 29 30 31 32 33 34 35 36 37 38 39 40 41 42 43 44 45 46 47 48 49 50

000
ASUS43 KFSD 011810
RWRSD

WEATHER ROUNDUP FOR SOUTH DAKOTA
NATIONAL WEATHER SERVICE SIOUX FALLS SD
100 PM CDT SUN MAY 01 2016

NOTE: "FAIR" INDICATES FEW OR NO CLOUDS BELOW 12,000 FEET WITH NO
SIGNIFICANT WEATHER AND/OR OBSTRUCTIONS TO VISIBILITY.


SDZ001>005-009-010-012>017-011900-
NORTHWEST AND NORTH CENTRAL SOUTH DAKOTA

CITY           SKY/WX    TMP DP  RH WIND       PRES   REMARKS
BUFFALO          N/A     58  28  32 NE9       30.24F
FAITH            N/A     55  27  34 NE15      30.29F
MOBRIDGE       SUNNY     58  34  40 N10G16    30.26F
$$

SDZ012>016-024>037-041>051-057-063-072>074-011900-
SOUTHWEST AND SOUTH CENTRAL SOUTH DAKOTA

CITY           SKY/WX    TMP DP  RH WIND       PRES   REMARKS
RAPID CTY ARPT MOSUNNY   54  31  41 N14G22    30.31F
PIERRE         PTSUNNY   56  34  43 N8        30.26F
CUSTER         SUNNY     45  23  42 N12       30.29F
ELLSWORTH AFB  MOSUNNY   53  30  41 N13G18    30.31F
PHILIP         SUNNY     56  32  40 NE7       30.29F
PINE RIDGE     PTSUNNY   52  30  43 NE9G26    30.29F
WINNER         FAIR      55  34  45 N18G31    30.25F
$$

SDZ004>011-016>023-039-040-011900-
NORTHEAST SOUTH DAKOTA

CITY           SKY/WX    TMP DP  RH WIND       PRES   REMARKS
ABERDEEN       SUNNY     58  32  37 N14G20    30.26F
WATERTOWN      SUNNY     55  32  41 E14G23    30.20F
BROOKINGS      MOSUNNY   52  33  48 NE14G21   30.18F
SISSETON         N/A     58  30  34 NE16G24   30.22F
$$

SDZ017-020-022-023-036>040-048>070-011900-
SOUTHEAST SOUTH DAKOTA

CITY           SKY/WX    TMP DP  RH WIND       PRES   REMARKS
SIOUX FALLS    PTSUNNY   52  41  66 N14       30.17F
HURON          SUNNY     56  33  42 NE16      30.22F
CHAMBERLAIN    SUNNY     56  33  42 N15G24    30.24S
MITCHELL       MOSUNNY   54  38  54 N17G23    30.22F
YANKTON        CLOUDY    48  39  71 NW10      30.19F
$$

ABBREVIATIONS USED IN REMARKS
   TC - TEMPERATURE IN CELSIUS
  WCI - WIND CHILL INDEX
   HX - HEAT INDEX
  VSB - VISIBILITY




USA.gov is the U.S. government's official web portal to all federal, state and local government web resources and services.